Location: *
(45.9500°N, 9.0833°E)
Time: 05:13:59
(UTC+00:00)

SR - Pass Details

Date: 17 June 2021
Orbit: 577 x 878 km, 66.7° (Epoch: 24 July)

Event Time Altitude Azimuth Distance (km) Brightness Sun altitude
Rises 19:01:47 0° 275° (W) 3,473 ? 1.3°
Reaches altitude 10° 19:05:31 10° 298° (WNW) 2,523 ? 0.8°
Maximum altitude 19:08:46 15° 332° (NNW) 2,162 ? 0.3°
Drops below altitude 10° 19:11:59 10° 6° (N) 2,467 ? -0.1°
Sets 19:15:34 0° 30° (NNE) 3,351 ? -0.6°
